When you browse on this site, cookies collect data to enhance your experience and personalize the content and advertising you see.
Visit our Privacy Policy to learn more. By continuing to use the site, you agree to this use of cookies and data.
  • In Latvia
  • List of Countries
  • For 7 days
  • Water Temperature
  • Satellite Maps
  • Weather Map
  • Weather Widgets
  • user-avatar
    Login

    Hourly Weather Baraki Barak

    Today, 19 April, Friday

    Time Temperature Precipitation Wind Pressure Humidity
    00:00 +13°C° 0 mm 1 mps 599 mmHg 55%
    01:00 +13°C° 0 mm 1 mps 599 mmHg 56%
    02:00 +12°C° 0 mm 1 mps 598 mmHg 58%
    03:00 +12°C° 0 mm 1 mps 598 mmHg 57%
    04:00 +11°C° 0 mm 1 mps 598 mmHg 57%
    05:00 +11°C° 0 mm 1 mps 597 mmHg 55%
    06:00 +12°C° 0 mm 1 mps 598 mmHg 49%
    07:00 +13°C° 0 mm 1 mps 598 mmHg 43%
    08:00 +14°C° 0 mm 1 mps 599 mmHg 37%
    09:00 +16°C° 0 mm 1 mps 599 mmHg 33%
    10:00 +18°C° 0 mm 1 mps 600 mmHg 29%
    11:00 +20°C° 0 mm 1 mps 600 mmHg 26%
    12:00 +21°C° 0 mm 1 mps 600 mmHg 24%
    13:00 +22°C° 0 mm 1 mps 600 mmHg 22%
    14:00 +23°C° 0 mm 1 mps 600 mmHg 20%
    15:00 +23°C° 0 mm 1 mps 600 mmHg 20%
    16:00 +23°C° 0 mm 1 mps 600 mmHg 20%
    17:00 +23°C° 0 mm 2 mps 600 mmHg 19%
    18:00 +22°C° 0.1 mm 1 mps 600 mmHg 24%
    19:00 +21°C° 0.1 mm 1 mps 600 mmHg 29%
    20:00 +20°C° 0.1 mm 1 mps 600 mmHg 33%
    21:00 +19°C° 0.4 mm 1 mps 599 mmHg 36%
    22:00 +19°C° 0.4 mm 1 mps 599 mmHg 38%
    23:00 +17°C° 0.4 mm 2 mps 599 mmHg 41%

    Tomorrow, 20 April, Saturday

    Time Temperature Precipitation Wind Pressure Humidity
    00:00 +16°C° 0.2 mm 2 mps 599 mmHg 42%
    01:00 +16°C° 0.2 mm 2 mps 598 mmHg 43%
    02:00 +15°C° 0.2 mm 2 mps 598 mmHg 44%
    03:00 +14°C° 0 mm 1 mps 598 mmHg 46%
    04:00 +14°C° 0 mm 1 mps 597 mmHg 47%
    05:00 +13°C° 0 mm 1 mps 597 mmHg 49%
    06:00 +14°C° 0 mm 1 mps 597 mmHg 46%
    07:00 +14°C° 0 mm 1 mps 598 mmHg 42%
    08:00 +15°C° 0 mm 1 mps 598 mmHg 38%
    09:00 +16°C° 0 mm 1 mps 598 mmHg 36%
    10:00 +18°C° 0 mm 1 mps 598 mmHg 35%
    11:00 +20°C° 0 mm 1 mps 599 mmHg 33%
    12:00 +21°C° 0 mm 1 mps 599 mmHg 30%
    13:00 +22°C° 0 mm 1 mps 599 mmHg 28%
    14:00 +23°C° 0 mm 1 mps 599 mmHg 25%
    15:00 +23°C° 0 mm 2 mps 599 mmHg 25%
    16:00 +23°C° 0 mm 2 mps 599 mmHg 24%
    17:00 +22°C° 0 mm 3 mps 599 mmHg 24%
    18:00 +21°C° 0.2 mm 2 mps 598 mmHg 30%
    19:00 +20°C° 0.2 mm 2 mps 598 mmHg 36%
    20:00 +19°C° 0.2 mm 2 mps 598 mmHg 42%
    21:00 +18°C° 0 mm 2 mps 598 mmHg 45%
    22:00 +17°C° 0 mm 2 mps 598 mmHg 49%
    23:00 +17°C° 0 mm 2 mps 598 mmHg 52%

    Day after tomorrow, 21 April, Sunday

    Time Temperature Precipitation Wind Pressure Humidity
    00:00 +16°C° 0.1 mm 1 mps 598 mmHg 53%
    01:00 +15°C° 0.1 mm 1 mps 598 mmHg 55%
    02:00 +15°C° 0.1 mm 1 mps 597 mmHg 56%
    03:00 +14°C° 0 mm 1 mps 597 mmHg 57%
    04:00 +14°C° 0 mm 1 mps 597 mmHg 58%
    05:00 +13°C° 0 mm 1 mps 596 mmHg 59%
    06:00 +14°C° 0 mm 1 mps 597 mmHg 53%
    07:00 +15°C° 0 mm 1 mps 598 mmHg 47%
    08:00 +16°C° 0 mm 1 mps 598 mmHg 41%
    09:00 +18°C° 0 mm 1 mps 598 mmHg 38%
    10:00 +19°C° 0 mm 1 mps 599 mmHg 35%
    11:00 +20°C° 0 mm 1 mps 599 mmHg 32%
    12:00 +21°C° 0 mm 1 mps 599 mmHg 29%
    13:00 +22°C° 0 mm 1 mps 599 mmHg 26%
    14:00 +23°C° 0 mm 1 mps 600 mmHg 23%
    15:00 +24°C° 0 mm 2 mps 599 mmHg 23%
    16:00 +24°C° 0 mm 2 mps 599 mmHg 22%
    17:00 +24°C° 0 mm 3 mps 599 mmHg 22%
    18:00 +22°C° 0 mm 3 mps 599 mmHg 26%
    19:00 +21°C° 0 mm 2 mps 599 mmHg 29%
    20:00 +20°C° 0 mm 2 mps 599 mmHg 33%
    21:00 +19°C° 0 mm 2 mps 599 mmHg 37%
    22:00 +19°C° 0 mm 2 mps 599 mmHg 41%
    23:00 +18°C° 0 mm 2 mps 599 mmHg 45%

    22 April, Monday

    Time Temperature Precipitation Wind Pressure Humidity
    00:00 +17°C° 0 mm 2 mps 599 mmHg 47%
    01:00 +16°C° 0 mm 2 mps 598 mmHg 49%
    02:00 +15°C° 0 mm 2 mps 598 mmHg 51%
    03:00 +15°C° 0 mm 1 mps 597 mmHg 52%
    04:00 +14°C° 0 mm 1 mps 597 mmHg 53%
    05:00 +14°C° 0 mm 1 mps 597 mmHg 54%
    06:00 +15°C° 0 mm 1 mps 597 mmHg 49%
    07:00 +15°C° 0 mm 1 mps 598 mmHg 43%
    08:00 +16°C° 0 mm 1 mps 599 mmHg 38%
    09:00 +19°C° 0 mm 1 mps 599 mmHg 35%
    10:00 +20°C° 0 mm 1 mps 600 mmHg 31%
    11:00 +21°C° 0 mm 1 mps 600 mmHg 28%
    12:00 +22°C° 0 mm 1 mps 600 mmHg 25%
    13:00 +23°C° 0 mm 2 mps 600 mmHg 23%
    14:00 +24°C° 0 mm 2 mps 600 mmHg 20%
    15:00 +24°C° 0 mm 3 mps 600 mmHg 21%
    16:00 +23°C° 0 mm 4 mps 600 mmHg 22%
    17:00 +23°C° 0 mm 5 mps 600 mmHg 22%
    18:00 +22°C° 0.1 mm 4 mps 600 mmHg 26%
    19:00 +21°C° 0.1 mm 3 mps 600 mmHg 30%
    20:00 +21°C° 0.1 mm 2 mps 600 mmHg 34%
    21:00 +20°C° 0.1 mm 2 mps 600 mmHg 37%
    22:00 +20°C° 0.1 mm 1 mps 600 mmHg 41%
    23:00 +19°C° 0.1 mm 1 mps 600 mmHg 44%

    23 April, Tuesday

    Time Temperature Precipitation Wind Pressure Humidity
    00:00 +18°C° 0 mm 1 mps 600 mmHg 45%
    01:00 +17°C° 0 mm 2 mps 599 mmHg 46%
    02:00 +16°C° 0 mm 2 mps 599 mmHg 48%
    03:00 +15°C° 0 mm 2 mps 598 mmHg 48%
    04:00 +15°C° 0 mm 2 mps 598 mmHg 48%
    05:00 +14°C° 0 mm 2 mps 598 mmHg 48%
    06:00 +15°C° 0 mm 1 mps 598 mmHg 44%
    07:00 +16°C° 0 mm 1 mps 599 mmHg 39%
    08:00 +16°C° 0 mm 0 mps 599 mmHg 35%
    09:00 +19°C° 0 mm 1 mps 600 mmHg 32%
    10:00 +21°C° 0 mm 1 mps 601 mmHg 29%
    11:00 +21°C° 0 mm 2 mps 601 mmHg 26%
    12:00 +22°C° 0 mm 3 mps 601 mmHg 26%
    13:00 +23°C° 0 mm 4 mps 601 mmHg 26%
    14:00 +23°C° 0 mm 5 mps 601 mmHg 26%
    15:00 +23°C° 0.1 mm 5 mps 601 mmHg 27%
    16:00 +22°C° 0.1 mm 4 mps 601 mmHg 29%
    17:00 +22°C° 0.1 mm 3 mps 600 mmHg 31%
    18:00 +21°C° 0.2 mm 3 mps 600 mmHg 35%
    19:00 +20°C° 0.2 mm 2 mps 600 mmHg 40%
    20:00 +19°C° 0.2 mm 2 mps 600 mmHg 44%
    21:00 +18°C° 0.1 mm 2 mps 600 mmHg 47%
    22:00 +18°C° 0.1 mm 2 mps 599 mmHg 50%
    23:00 +17°C° 0.1 mm 2 mps 599 mmHg 53%

    24 April, Wednesday

    Time Temperature Precipitation Wind Pressure Humidity
    00:00 +16°C° 0 mm 2 mps 599 mmHg 55%
    01:00 +16°C° 0 mm 2 mps 598 mmHg 58%
    02:00 +15°C° 0 mm 2 mps 598 mmHg 60%
    03:00 +15°C° 0.1 mm 2 mps 598 mmHg 61%
    04:00 +14°C° 0.1 mm 2 mps 597 mmHg 62%
    05:00 +14°C° 0.1 mm 2 mps 597 mmHg 63%
    06:00 +13°C° 1.7 mm 1 mps 598 mmHg 68%
    07:00 +13°C° 1.7 mm 1 mps 598 mmHg 73%
    08:00 +12°C° 1.7 mm 1 mps 598 mmHg 78%
    09:00 +13°C° 1.2 mm 1 mps 598 mmHg 75%
    10:00 +14°C° 1.2 mm 1 mps 599 mmHg 72%
    11:00 +14°C° 1.2 mm 1 mps 599 mmHg 70%
    12:00 +15°C° 0.4 mm 2 mps 599 mmHg 67%
    13:00 +16°C° 0.4 mm 3 mps 599 mmHg 63%
    14:00 +17°C° 0.4 mm 4 mps 599 mmHg 60%
    15:00 +17°C° 0.5 mm 3 mps 599 mmHg 59%
    16:00 +17°C° 0.5 mm 3 mps 598 mmHg 57%
    17:00 +18°C° 0.5 mm 2 mps 598 mmHg 56%
    18:00 +17°C° 0.9 mm 3 mps 598 mmHg 61%
    19:00 +16°C° 0.9 mm 3 mps 598 mmHg 67%
    20:00 +14°C° 0.9 mm 3 mps 597 mmHg 73%
    21:00 +13°C° 0.7 mm 3 mps 597 mmHg 74%
    22:00 +13°C° 0.7 mm 3 mps 597 mmHg 76%
    23:00 +13°C° 0.7 mm 2 mps 597 mmHg 77%
    Show more